Tracking 19908 objects as of 19-Oct-2019
HD Live streaming from Space Station
objects crossing your sky now

FLOCK 3P 40

Track FLOCK 3P 40 now!
10-day predictions
FLOCK 3P 40 is classified as:


NORAD ID: 42010
Int'l Code: 2017-008BQ
Perigee: 489.5 km
Apogee: 502.3 km
Inclination: 97.4 °
Period: 94.4 minutes
Semi major axis: 6866 km
RCS: Unknown
Launch date: February 15, 2017
Source: United States (US)
Launch site: SRIHARIKOTA (SRI)
aabbcc
Your satellite tracking list
Your tracking list is empty




NASA's NSSDC Master Catalog

Two Line Element Set (TLE):
1 42010U 17008BQ  19291.13372577 +.00000935 +00000-0 +39534-4 0  9995
2 42010 097.3947 356.9003 0009297 097.4974 262.7321 15.25682626147717
Source of the keplerian elements: AFSPC